timestamp,wind_dir_avg,wind_spd_avg,wind_spd_max_dir,wind_spd_gust,battery_voltage,lat,long
2022-09-28 00:04:00+00:00,199.0,10.59,199.0,11.85,12.57,47.59359,-54.27349
2022-09-28 00:14:00+00:00,202.0,10.55,210.0,11.39,12.57,47.59359,-54.27349
2022-09-28 00:24:00+00:00,208.0,10.17,210.0,10.89,12.57,47.59359,-54.27349
2022-09-28 00:34:00+00:00,219.0,7.61,224.0,8.72,12.57,47.59359,-54.27349
2022-09-28 00:44:00+00:00,211.0,10.91,207.0,12.84,12.57,47.59359,-54.27349
2022-09-28 00:54:00+00:00,201.0,11.76,202.0,13.47,12.57,47.59359,-54.27349
2022-09-28 01:04:00+00:00,198.0,12.28,199.0,13.93,12.57,47.59359,-54.27349
2022-09-28 01:14:00+00:00,201.0,11.15,204.0,13.22,12.57,47.59359,-54.27349
2022-09-28 01:24:00+00:00,202.0,11.51,204.0,13.74,12.57,47.59359,-54.27349
2022-09-28 01:34:00+00:00,200.0,11.02,206.0,12.17,12.57,47.59359,-54.27349
2022-09-28 01:44:00+00:00,201.0,10.62,198.0,12.21,12.57,47.59359,-54.27349
2022-09-28 01:54:00+00:00,201.0,11.94,201.0,13.33,12.57,47.59359,-54.27349
2022-09-28 02:04:00+00:00,208.0,9.83,211.0,11.45,12.57,47.59359,-54.27349
2022-09-28 02:14:00+00:00,219.0,9.71,220.0,11.1,12.57,47.59359,-54.27349
2022-09-28 02:24:00+00:00,220.0,10.54,217.0,12.34,12.57,47.59359,-54.27349
2022-09-28 02:34:00+00:00,206.0,10.85,199.0,11.96,12.57,47.59359,-54.27349
2022-09-28 02:44:00+00:00,201.0,10.39,208.0,11.54,12.57,47.59359,-54.27349
2022-09-28 02:54:00+00:00,212.0,9.57,212.0,10.61,12.57,47.59359,-54.27349
2022-09-28 03:04:00+00:00,200.0,11.43,204.0,12.71,12.57,47.59359,-54.27349
2022-09-28 03:14:00+00:00,199.0,11.76,197.0,13.32,12.49,47.59359,-54.27349
2022-09-28 03:24:00+00:00,206.0,11.39,208.0,13.14,12.49,47.59359,-54.27349
2022-09-28 03:34:00+00:00,204.0,12.17,200.0,13.53,12.49,47.59359,-54.27349
2022-09-28 03:44:00+00:00,203.0,12.57,204.0,13.95,12.49,47.59359,-54.27349
2022-09-28 03:54:00+00:00,209.0,14.02,207.0,16.55,12.49,47.59359,-54.27349
2022-09-28 04:04:00+00:00,211.0,13.37,203.0,15.89,12.49,47.59359,-54.27349
2022-09-28 04:14:01+00:00,206.0,13.43,201.0,17.77,12.49,47.59359,-54.27349
2022-09-28 04:24:01+00:00,211.0,14.24,217.0,17.19,12.49,47.59359,-54.27349
2022-09-28 04:34:01+00:00,215.0,15.53,215.0,18.28,12.49,47.59359,-54.27349
2022-09-28 04:44:01+00:00,214.0,13.97,216.0,16.02,12.49,47.59359,-54.27349
2022-09-28 04:54:01+00:00,214.0,13.4,213.0,15.31,12.49,47.59359,-54.27349
2022-09-28 05:04:01+00:00,214.0,13.7,218.0,16.45,12.49,47.59359,-54.27349
2022-09-28 05:14:00+00:00,218.0,11.0,218.0,12.37,12.49,47.59359,-54.27349
2022-09-28 05:24:00+00:00,224.0,11.45,217.0,13.83,12.49,47.59359,-54.27349
2022-09-28 05:34:00+00:00,233.0,10.21,233.0,11.69,12.49,47.59359,-54.27349
2022-09-28 05:44:00+00:00,245.0,8.96,249.0,10.05,12.49,47.59359,-54.27349
2022-09-28 05:54:00+00:00,232.0,9.69,229.0,10.84,12.49,47.59359,-54.27349
2022-09-28 06:04:00+00:00,233.0,8.73,228.0,10.62,12.49,47.59359,-54.27349
2022-09-28 06:14:00+00:00,231.0,9.75,229.0,11.86,12.49,47.59359,-54.27349
2022-09-28 06:24:00+00:00,230.0,9.45,228.0,10.83,12.49,47.59359,-54.27349
2022-09-28 06:34:00+00:00,233.0,8.29,231.0,9.68,12.49,47.59359,-54.27349
2022-09-28 06:44:00+00:00,237.0,7.56,240.0,9.09,12.49,47.59359,-54.27349
2022-09-28 06:54:00+00:00,238.0,7.33,234.0,8.82,12.49,47.59359,-54.27349
2022-09-28 07:04:00+00:00,223.0,10.46,222.0,11.98,12.49,47.59359,-54.27349
2022-09-28 07:14:01+00:00,219.0,11.52,216.0,13.19,12.41,47.59359,-54.27349
2022-09-28 07:24:01+00:00,228.0,9.17,231.0,10.53,12.41,47.59359,-54.27349
2022-09-28 07:34:01+00:00,229.0,10.45,230.0,12.59,12.41,47.59359,-54.27349
2022-09-28 07:44:01+00:00,233.0,8.76,230.0,10.53,12.41,47.59359,-54.27349
2022-09-28 07:54:01+00:00,246.0,9.43,253.0,10.59,12.41,47.59359,-54.27349
2022-09-28 08:04:01+00:00,235.0,9.28,229.0,10.41,12.41,47.59359,-54.27349
2022-09-28 08:14:00+00:00,230.0,9.48,225.0,11.64,12.41,47.59359,-54.27349
2022-09-28 08:24:00+00:00,228.0,9.99,235.0,11.77,12.41,47.59359,-54.27349
2022-09-28 08:34:00+00:00,237.0,9.51,237.0,10.45,12.41,47.59359,-54.27349
2022-09-28 08:44:00+00:00,233.0,10.53,235.0,12.0,12.41,47.59359,-54.27349
2022-09-28 08:54:00+00:00,240.0,10.01,248.0,11.95,12.41,47.59359,-54.27349
2022-09-28 09:04:00+00:00,230.0,9.36,221.0,11.53,12.41,47.59359,-54.27349
2022-09-28 09:14:00+00:00,213.0,8.86,215.0,10.02,12.41,47.59359,-54.27349
2022-09-28 09:24:00+00:00,221.0,9.34,220.0,10.71,12.41,47.59359,-54.27349
2022-09-28 09:34:00+00:00,238.0,7.99,238.0,9.02,12.41,47.59359,-54.27349
2022-09-28 09:44:00+00:00,229.0,8.7,236.0,11.36,12.41,47.59359,-54.27349
2022-09-28 09:54:00+00:00,220.0,8.6,214.0,9.96,12.41,47.59359,-54.27349
2022-09-28 10:04:00+00:00,220.0,8.3,223.0,9.74,12.41,47.59359,-54.27349
2022-09-28 10:14:00+00:00,219.0,9.48,221.0,10.67,12.33,47.59359,-54.27349
2022-09-28 10:24:00+00:00,217.0,8.81,215.0,10.12,12.33,47.59359,-54.27349
2022-09-28 10:34:00+00:00,222.0,7.45,221.0,8.22,12.33,47.59359,-54.27349
2022-09-28 10:44:00+00:00,222.0,8.93,221.0,10.14,12.33,47.59359,-54.27349
2022-09-28 10:54:00+00:00,225.0,9.21,227.0,11.03,12.33,47.59359,-54.27349
2022-09-28 11:04:00+00:00,217.0,8.79,206.0,9.98,12.33,47.59359,-54.27349
2022-09-28 11:14:01+00:00,217.0,9.82,219.0,10.87,12.41,47.59359,-54.27349
2022-09-28 11:24:01+00:00,217.0,9.7,218.0,10.96,12.41,47.59359,-54.27349
2022-09-28 11:34:01+00:00,216.0,10.17,220.0,11.53,12.41,47.59359,-54.27349
2022-09-28 11:44:01+00:00,216.0,10.24,215.0,12.1,12.41,47.59359,-54.27349
2022-09-28 11:54:01+00:00,217.0,10.42,224.0,11.93,12.41,47.59359,-54.27349
2022-09-28 12:04:01+00:00,208.0,9.3,216.0,11.33,12.41,47.59359,-54.27349
2022-09-28 12:14:00+00:00,217.0,10.47,218.0,12.66,12.65,47.59359,-54.27349
2022-09-28 12:24:00+00:00,215.0,9.7,216.0,11.19,12.65,47.59359,-54.27349
2022-09-28 12:34:00+00:00,216.0,10.2,218.0,11.86,12.65,47.59359,-54.27349
2022-09-28 12:44:00+00:00,218.0,10.08,217.0,11.33,12.65,47.59359,-54.27349
2022-09-28 12:54:00+00:00,219.0,9.83,218.0,11.05,12.65,47.59359,-54.27349
2022-09-28 13:04:00+00:00,214.0,8.45,218.0,9.43,12.65,47.59359,-54.27349
2022-09-28 13:14:00+00:00,206.0,7.66,203.0,8.51,12.89,47.59359,-54.27349
2022-09-28 13:24:00+00:00,203.0,7.32,202.0,8.51,12.89,47.59359,-54.27349
2022-09-28 13:34:00+00:00,215.0,9.73,219.0,11.33,12.89,47.59359,-54.27349
2022-09-28 13:44:00+00:00,207.0,8.13,213.0,9.35,12.89,47.59359,-54.27349
2022-09-28 13:54:00+00:00,210.0,8.03,227.0,10.11,12.89,47.59359,-54.27349
2022-09-28 14:04:00+00:00,218.0,9.16,231.0,12.06,12.89,47.59359,-54.27349
2022-09-28 14:14:00+00:00,220.0,11.08,221.0,12.47,13.05,47.59359,-54.27349
2022-09-28 14:24:00+00:00,216.0,8.65,225.0,10.34,13.05,47.59359,-54.27349
2022-09-28 14:34:00+00:00,224.0,10.26,230.0,12.21,13.05,47.59359,-54.27349
2022-09-28 14:44:00+00:00,221.0,9.25,228.0,11.65,13.05,47.59359,-54.27349
2022-09-28 14:54:00+00:00,205.0,7.92,219.0,9.78,13.05,47.59359,-54.27349
2022-09-28 15:04:00+00:00,197.0,7.41,196.0,8.47,13.05,47.59359,-54.27349
2022-09-28 15:14:01+00:00,206.0,8.08,221.0,8.74,13.21,47.59359,-54.27349
2022-09-28 15:24:01+00:00,221.0,8.8,230.0,11.37,13.21,47.59359,-54.27349
2022-09-28 15:34:01+00:00,218.0,7.65,233.0,10.21,13.21,47.59359,-54.27349
2022-09-28 15:44:01+00:00,214.0,6.13,216.0,7.16,13.21,47.59359,-54.27349
2022-09-28 15:54:01+00:00,201.0,7.05,208.0,8.07,13.21,47.59359,-54.27349
2022-09-28 16:04:01+00:00,211.0,9.22,221.0,11.77,13.21,47.59359,-54.27349
2022-09-28 16:14:01+00:00,216.0,9.67,227.0,11.88,13.21,47.59359,-54.27349
2022-09-28 16:24:01+00:00,210.0,8.1,222.0,9.79,13.21,47.59359,-54.27349
2022-09-28 16:34:01+00:00,202.0,8.1,201.0,8.79,13.21,47.59359,-54.27349
2022-09-28 16:44:01+00:00,199.0,7.6,201.0,8.52,13.21,47.59359,-54.27349
2022-09-28 16:54:01+00:00,206.0,7.85,202.0,8.67,13.21,47.59359,-54.27349
2022-09-28 17:04:01+00:00,202.0,8.05,201.0,9.02,13.21,47.59359,-54.27349
2022-09-28 17:14:01+00:00,214.0,10.26,223.0,12.77,13.37,47.59359,-54.27349
2022-09-28 17:24:01+00:00,208.0,8.78,214.0,10.17,13.37,47.59359,-54.27349
2022-09-28 17:34:01+00:00,206.0,8.32,208.0,9.56,13.37,47.59359,-54.27349
2022-09-28 17:44:01+00:00,203.0,8.23,203.0,9.17,13.37,47.59359,-54.27349
2022-09-28 17:54:01+00:00,214.0,7.96,219.0,9.7,13.37,47.59359,-54.27349
2022-09-28 18:04:01+00:00,201.0,6.67,206.0,7.19,13.37,47.59359,-54.27349
2022-09-28 18:14:01+00:00,201.0,6.55,207.0,7.19,13.29,47.59359,-54.27349
2022-09-28 18:24:01+00:00,196.0,6.5,197.0,6.93,13.29,47.59359,-54.27349
2022-09-28 18:34:01+00:00,222.0,7.08,224.0,8.64,13.29,47.59359,-54.27349
2022-09-28 18:44:01+00:00,214.0,8.37,220.0,9.62,13.29,47.59359,-54.27349
2022-09-28 18:54:01+00:00,214.0,5.95,212.0,6.88,13.29,47.59359,-54.27349
2022-09-28 19:04:01+00:00,211.0,8.28,220.0,9.8,13.29,47.59359,-54.27349
2022-09-28 19:14:01+00:00,195.0,7.01,193.0,7.74,13.05,47.59359,-54.27349
2022-09-28 19:24:01+00:00,200.0,6.34,199.0,6.95,13.05,47.59359,-54.27349
2022-09-28 19:34:01+00:00,203.0,6.1,202.0,6.74,13.05,47.59359,-54.27349
2022-09-28 19:44:01+00:00,203.0,7.22,204.0,8.02,13.05,47.59359,-54.27349
2022-09-28 19:54:01+00:00,208.0,8.04,206.0,9.25,13.05,47.59359,-54.27349
2022-09-28 20:04:01+00:00,207.0,7.72,208.0,8.95,13.05,47.59359,-54.27349
2022-09-28 20:14:00+00:00,213.0,7.31,217.0,8.45,12.81,47.59359,-54.27349
2022-09-28 20:24:00+00:00,212.0,7.12,223.0,9.12,12.81,47.59359,-54.27349
2022-09-28 20:34:00+00:00,208.0,6.86,209.0,7.94,12.81,47.59359,-54.27349
2022-09-28 20:44:00+00:00,207.0,6.27,206.0,7.18,12.81,47.59359,-54.27349
2022-09-28 20:54:00+00:00,209.0,6.42,214.0,7.34,12.81,47.59359,-54.27349
2022-09-28 21:04:00+00:00,209.0,7.4,209.0,8.29,12.81,47.59359,-54.27349
2022-09-28 21:14:00+00:00,212.0,6.63,216.0,7.71,12.57,47.59359,-54.27349
2022-09-28 21:24:00+00:00,207.0,5.51,229.0,7.74,12.57,47.59359,-54.27349
2022-09-28 21:34:00+00:00,212.0,4.43,212.0,5.22,12.57,47.59359,-54.27349
2022-09-28 21:44:00+00:00,202.0,6.09,200.0,7.01,12.57,47.59359,-54.27349
2022-09-28 21:54:00+00:00,206.0,5.06,204.0,5.84,12.57,47.59359,-54.27349
2022-09-28 22:04:00+00:00,217.0,7.78,226.0,8.49,12.57,47.59359,-54.27349
2022-09-28 22:14:00+00:00,221.0,5.37,220.0,7.12,12.57,47.59359,-54.27349
2022-09-28 22:24:00+00:00,218.0,4.93,227.0,5.97,12.57,47.59359,-54.27349
2022-09-28 22:34:00+00:00,221.0,2.94,223.0,3.53,12.57,47.59359,-54.27349
2022-09-28 22:44:00+00:00,128.0,1.57,122.0,2.55,12.57,47.59359,-54.27349
2022-09-28 22:54:00+00:00,315.0,0.01,133.0,0.0,12.57,47.59359,-54.27349
2022-09-28 23:04:00+00:00,119.0,3.52,120.0,3.56,12.57,47.59359,-54.27349
2022-09-28 23:14:00+00:00,315.0,0.01,116.0,0.0,12.49,47.59359,-54.27349
2022-09-28 23:24:00+00:00,167.0,6.35,167.0,6.74,12.49,47.59359,-54.27349
2022-09-28 23:34:00+00:00,188.0,4.07,189.0,4.53,12.49,47.59359,-54.27349
2022-09-28 23:44:00+00:00,172.0,5.25,191.0,5.49,12.49,47.59359,-54.27349
2022-09-28 23:54:00+00:00,191.0,4.28,191.0,4.49,12.49,47.59359,-54.27349
